Weather in Kokuy

Russia / Zabaykalsky Krai     52°12′19″N   117°32′50″E
temp.,
°C
wind,
m/s
gust,
m/s
humid.,
%
clouds,
%
prec.,
mm/h
press.,
hPa
HPBL,
m
1 july, fri
fri100:00+20e226515 0.0 100611
03:00+18e11703 0.0 100611
06:00+18ese11744 0.0 100716
09:00+24se22554 0.2 1006331
12:00+31ssw13342 0.0 10041359
15:00+34se12277 0.0 10022584
18:00+23se496274 0.4 1003336
21:00+19sse348098 1.2 100588
2 july, sat
sat200:00+18ne118388 0.2 100415
03:00+16ese2286100 0.2 100413
06:00+16e1187100 0.0 100318
09:00+22wsw1168100 0.0 1003331
12:00+23ssw126724 0.4 1003471
15:00+28nnw325376 0.6 1000740
18:00+29n12454 0.0 9991238
21:00+24ene22630 0.0 99912
3 july, sun
sun300:00+19ene22820 0.0 100016
03:00+17e21905 0.0 100111
06:00+17e229085 0.0 100135
09:00+24e2364100 0.0 1000364
12:00+31e334040 0.0 9991024
15:00+34ne232816 0.0 9962249
18:00+25se355845 0.2 997162
21:00+21w257591 0.6 99997
4 july, mon
mon400:00+19ene2287100 0.8 99925
03:00+18ene229184 1.5 99921
06:00+18sse1194100 0.5 100026
09:00+18e2294100 0.8 100045
12:00+19ese2696100 1.1 1001315
15:00+22ese458222 1.6 1000613
18:00+24ssw257419 1.5 998846
21:00+20se2288100 3.3 99830
5 july, tue
tue500:00+18ese119598 2.1 99916
03:00+18ese119470 2.3 99911
06:00+18sse119584 0.1 100015
09:00+22wsw128481 0.1 1000533
12:00+26wnw235619 0.1 9991413
15:00+29nw33466 0.1 9981359
18:00+28nw334796 0.0 996908
21:00+19e2293100 1.3 99825